[[{"header":{"parameterUnit":"m.s-1","parameterCategory":1,"la1":30.2991,"la2":30.254,"lo1":-89.0895,"lo2":-89.0444,"dy":0.0017,"dx":0.0017,"nx":28,"ny":28,"refTime":"2025-01-06T03:00:00:Z","depth":0,"parameterNumber":2,"parameterNumberName":"U-component_of_WINDS"},"data":[0,0,0,0,0,0,0,0,0,0,0,0,0,0,0,0,0,0,0,0,0,0,0,0,0,0,0,0,0,0,0,0,0,0,0,0,0,0,0,0,0,0,0,0,0,0,0,0,0,0,0,0,0,0,0,0,0,0,4.27,4.2701,0,4.2742,4.2742,4.2743,4.2709,4.2707,4.2706,4.2705,4.2745,4.2748,4.275,0,0,0,0,0,0,0,0,0,0,0,0,0,4.2593,4.2595,4.27,4.2701,4.2702,4.2742,4.2742,4.2743,4.2709,4.2707,4.2706,4.2704,4.2745,4.2747,4.275,0,0,0,0,0,0,0,0,0,0,0,0,0,4.2637,4.2595,4.27,4.2689,4.2689,4.2742,4.2742,4.2743,4.2709,4.2707,4.2705,4.2703,4.2744,4.2747,4.2751,4.2816,0,0,4.2762,4.2763,0,0,0,0,0,0,0,0,4.2635,4.2641,4.2691,4.269,4.269,4.2718,4.2719,4.2767,4.271,4.2702,4.2705,4.2702,4.2738,4.2742,4.2754,4.2818,4.2819,4.2762,4.2764,4.2766,4.2767,0,0,0,0,0,0,0,4.2632,4.2639,4.2717,4.2691,4.2691,4.2683,4.2687,4.2728,4.2731,4.2702,4.27,4.2705,4.2737,4.2751,4.2755,4.282,4.2762,4.2765,4.2767,4.2769,4.2942,4.2944,0,0,0,0,0,0,4.263,4.2637,4.2715,4.2718,4.2657,4.2686,4.2691,4.2711,4.2731,4.2732,4.2707,4.2703,4.2746,4.2751,4.2756,4.2835,4.2766,4.2769,4.2771,4.2939,4.2942,4.2945,0,0,0,0,0,0,4.2628,4.2637,4.2714,4.2677,4.2686,4.2691,4.2714,4.2713,4.2726,4.2734,4.2735,4.272,4.2744,4.2751,4.2802,4.2836,4.2771,4.2774,4.2937,4.294,4.2944,4.2993,0,0,0,0,0,0,4.2625,4.2636,4.2661,4.2678,4.2688,4.2759,4.2716,4.2715,4.2733,4.2729,4.2747,4.2748,4.2743,4.2797,4.2806,4.284,4.2777,4.2934,4.2938,4.2943,4.2988,4.2998,4.3006,0,0,0,0,0,4.2621,4.2672,4.2662,4.2672,4.2719,4.2761,4.2767,4.2761,4.2736,4.2761,4.2766,4.2747,4.2831,4.2802,4.2812,4.2848,4.2931,4.2937,4.2942,4.2984,4.2996,4.3006,0,0,0,0,0,0,4.2658,4.2674,4.2663,4.2722,4.274,4.2755,4.2786,4.2773,4.2798,4.2793,4.2784,4.2789,4.2843,4.285,4.2818,4.2913,4.2877,4.2885,4.2906,4.2917,4.2926,4.2923,4.278,0,0,0,0,0,4.2673,4.2706,4.2718,4.2769,4.2779,4.2781,4.2799,4.2793,4.2812,4.2819,4.2828,4.2847,4.2878,4.2898,4.2926,4.299,4.2994,4.302,4.3028,4.3036,4.3042,4.3078,4.309,4.2963,4.2963,4.2963,0,0,4.2704,4.2717,4.2738,4.2777,4.279,4.2825,4.2788,4.2825,4.2851,4.2825,4.2874,4.2881,4.2902,4.296,4.2986,4.2968,4.3079,4.3043,4.3048,4.3051,4.3085,4.3097,4.3108,4.2967,4.2966,4.2965,0,0,4.2779,4.2792,4.2836,4.2852,4.2873,4.2875,4.2886,4.2904,4.2908,4.2957,4.2939,4.297,4.3022,4.3038,4.3053,4.3138,4.3122,4.3148,4.3194,4.3229,4.3239,4.3248,4.3279,4.329,4.3154,4.3154,4.3154,0,4.2815,4.2867,4.2861,4.2901,4.2919,4.2898,4.2943,4.2958,4.2988,4.3001,4.2981,4.3049,4.3061,4.3123,4.3144,4.3157,4.317,4.3145,4.3238,4.3247,4.3255,4.3285,4.3296,4.3157,4.3157,4.3157,4.3156,0,4.291,4.2947,4.298,4.3011,4.3033,4.3075,4.3076,4.3099,4.3092,4.3096,4.3148,4.3162,4.3195,4.3209,4.3202,4.3271,4.326,4.3239,4.3203,4.327,4.3298,4.3309,4.3162,4.3161,4.316,4.3159,0,0,4.3008,4.3037,4.3049,4.3064,4.3088,4.3116,4.3159,4.3191,4.3212,4.3234,4.327,4.3316,4.3298,4.3316,4.331,4.3341,4.3409,4.3317,4.3317,4.3334,4.3489,4.3504,4.3517,4.3399,4.3401,4.3403,4.3487,0,4.3084,4.3158,4.3156,4.3225,4.3259,4.3242,4.3279,4.3298,4.3304,4.3334,4.334,4.3374,4.3347,4.3357,4.3387,4.3395,4.344,4.3389,4.3433,4.3435,4.3428,4.3532,4.3548,4.3626,4.3498,4.35,4.3501,0,4.3183,4.321,4.3283,4.3305,4.3319,4.3352,4.3384,4.3412,4.3435,4.3437,4.3458,4.3448,4.3492,4.3456,4.3516,4.3482,4.35,4.3507,4.351,4.3513,4.3472,4.3539,4.3651,4.3663,4.3518,4.3517,4.3515,0,4.3248,4.3303,4.3354,4.3367,4.3393,4.3418,4.3429,4.345,4.347,4.3497,4.3511,4.3543,4.356,4.3585,4.3585,4.3558,4.3648,4.361,4.3651,4.3651,4.367,4.3669,4.3787,4.3682,4.3681,4.3681,4.3681,0,4.3334,4.3379,4.3384,4.3416,4.3467,4.3464,4.3515,4.3524,4.3543,4.3577,4.3563,4.3595,4.3593,4.3626,4.3626,4.3678,4.3685,4.3689,4.3688,4.369,4.369,4.3701,4.3696,4.3684,4.3684,4.3683,4.3683,0,4.3415,4.3419,4.3475,4.3496,4.3502,4.3539,4.3557,4.3588,4.3593,4.3636,4.3646,4.3655,4.3693,4.3696,4.3739,4.3739,4.3802,4.3795,4.3795,4.3794,4.3835,4.3831,4.3965,4.3983,4.3865,4.3867,4.3867,0,4.3469,4.3504,4.353,4.3552,4.3566,4.3601,4.3623,4.3622,4.3645,4.3675,4.3702,4.3739,4.3769,4.383,4.3841,4.3874,4.3869,4.3914,4.3874,4.3875,4.387,4.3869,4.3873,4.3921,4.3922,4.3923,4.3924,0,4.3566,4.3567,4.3599,4.3633,4.366,4.3686,4.371,4.3729,4.3731,4.3758,4.3798,4.3821,4.3867,4.3904,4.3938,4.395,4.3938,4.3937,4.3948,4.3951,4.3949,4.3952,4.3817,4.3934,4.3933,4.3932,4.3932,4.3931,4.3635,4.3667,4.369,4.3727,4.3746,4.377,4.38,4.3811,4.3844,4.3881,4.3879,4.3923,4.3947,4.3991,4.4006,4.4041,4.4026,4.4042,4.4046,4.405,4.4055,4.3944,4.4047,4.4047,4.4047,4.4046,4.4046,0,4.3732,4.3747,4.3781,4.3817,4.3847,4.3834,4.3861,4.3886,4.3926,4.3949,4.3979,4.4025,4.4062,4.4077,4.4113,4.4138,4.4134,4.4148,4.4146,4.4149,4.4066,4.4053,4.4151,4.4151,4.4151,4.4151,4.4151,4.4151,4.3786,4.3839,4.3844,4.3906,4.3921,4.3964,4.3981,4.4004,4.4023,4.4075,4.4106,4.4116,4.4136,4.4174,4.4208,4.4211,4.4226,4.4242,4.4243,4.4165,4.4155,4.4145,4.4132,4.4245,4.4245,4.4324,4.4324,4.4325]},{"header":{"parameterUnit":"m.s-1","parameterCategory":1,"la1":30.2991,"la2":30.254,"lo1":-89.0895,"lo2":-89.0444,"dy":0.0017,"dx":0.0017,"nx":28,"ny":28,"refTime":"2025-01-06T03:00:00:Z","depth":0,"parameterNumber":3,"parameterNumberName":"V-component_of_WINDS"},"data":[0,0,0,0,0,0,0,0,0,0,0,0,0,0,0,0,0,0,0,0,0,0,0,0,0,0,0,0,0,0,0,0,0,0,0,0,0,0,0,0,0,0,0,0,0,0,0,0,0,0,0,0,0,0,0,0,0,0,-7.6834,-7.6836,0,-7.6989,-7.6991,-7.6993,-7.6984,-7.6982,-7.698,-7.6977,-7.7131,-7.7137,-7.7143,0,0,0,0,0,0,0,0,0,0,0,0,0,-7.6529,-7.6534,-7.6834,-7.6836,-7.6838,-7.6989,-7.6991,-7.6993,-7.6984,-7.6982,-7.6979,-7.6976,-7.7129,-7.7136,-7.7143,0,0,0,0,0,0,0,0,0,0,0,0,0,-7.667,-7.6536,-7.6834,-7.6852,-7.6855,-7.6988,-7.6991,-7.6994,-7.6985,-7.6982,-7.6978,-7.6975,-7.7126,-7.7135,-7.7144,-7.7268,0,0,-7.7173,-7.7177,0,0,0,0,0,0,0,0,-7.6662,-7.6681,-7.6848,-7.6851,-7.6855,-7.6964,-7.6939,-7.7085,-7.6986,-7.6936,-7.6977,-7.6974,-7.7078,-7.7091,-7.7127,-7.7275,-7.7282,-7.7173,-7.7179,-7.7183,-7.7186,0,0,0,0,0,0,0,-7.6652,-7.6675,-7.6895,-7.685,-7.6855,-7.6852,-7.6868,-7.6967,-7.7023,-7.694,-7.6939,-7.6958,-7.7079,-7.7118,-7.713,-7.7284,-7.7173,-7.7181,-7.7187,-7.7191,-7.7544,-7.7547,0,0,0,0,0,0,-7.6639,-7.6666,-7.689,-7.69,-7.6749,-7.686,-7.6878,-7.6932,-7.7022,-7.7033,-7.6961,-7.6957,-7.7104,-7.712,-7.7136,-7.7288,-7.7183,-7.7192,-7.7197,-7.754,-7.7545,-7.7549,0,0,0,0,0,0,-7.6633,-7.6659,-7.6884,-7.6783,-7.6812,-7.6869,-7.6929,-7.6937,-7.6976,-7.7038,-7.7048,-7.6991,-7.7102,-7.7123,-7.7236,-7.7293,-7.7196,-7.7204,-7.7535,-7.7541,-7.7547,-7.7592,0,0,0,0,0,0,-7.6624,-7.6657,-7.6705,-7.6785,-7.6817,-7.6983,-7.6933,-7.6942,-7.6993,-7.6989,-7.7069,-7.7078,-7.7101,-7.7222,-7.7245,-7.7304,-7.7211,-7.753,-7.7538,-7.7545,-7.7585,-7.7598,-7.7609,0,0,0,0,0,-7.6613,-7.671,-7.6707,-7.6734,-7.6879,-7.6986,-7.7005,-7.703,-7.6997,-7.7046,-7.7086,-7.7076,-7.7283,-7.7234,-7.726,-7.7322,-7.7527,-7.7536,-7.7544,-7.758,-7.7596,-7.7609,0,0,0,0,0,0,-7.6633,-7.672,-7.6719,-7.6844,-7.6908,-7.6985,-7.7046,-7.7045,-7.7118,-7.7112,-7.7139,-7.7157,-7.7271,-7.7308,-7.7251,-7.7447,-7.7401,-7.7415,-7.7419,-7.7435,-7.7446,-7.7435,-7.7219,0,0,0,0,0,-7.6652,-7.6733,-7.6805,-7.6909,-7.6941,-7.6989,-7.7036,-7.7051,-7.7117,-7.7143,-7.7192,-7.7256,-7.7335,-7.7387,-7.7463,-7.7591,-7.7609,-7.7647,-7.7659,-7.7668,-7.768,-7.7752,-7.777,-7.7577,-7.7577,-7.7577,0,0,-7.6692,-7.675,-7.6799,-7.6915,-7.6966,-7.7049,-7.7011,-7.71,-7.7162,-7.7156,-7.7267,-7.7305,-7.7378,-7.75,-7.7556,-7.7534,-7.7737,-7.7679,-7.7686,-7.7693,-7.7762,-7.7781,-7.7797,-7.7583,-7.7582,-7.7581,0,0,-7.6807,-7.686,-7.6953,-7.7006,-7.7085,-7.7116,-7.7139,-7.7216,-7.7242,-7.7354,-7.7353,-7.7426,-7.7562,-7.7615,-7.7659,-7.7799,-7.7792,-7.7823,-7.7885,-7.7955,-7.797,-7.7983,-7.8034,-7.8052,-7.7834,-7.7834,-7.7834,0,-7.6847,-7.6973,-7.7,-7.7091,-7.7142,-7.7144,-7.7239,-7.7288,-7.7387,-7.7422,-7.7397,-7.757,-7.7619,-7.7754,-7.7788,-7.7824,-7.7851,-7.7813,-7.7966,-7.798,-7.7993,-7.8041,-7.806,-7.7838,-7.7837,-7.7837,-7.7837,0,-7.7018,-7.7106,-7.7171,-7.727,-7.7329,-7.7421,-7.7462,-7.7518,-7.7528,-7.7561,-7.7676,-7.7736,-7.7825,-7.7859,-7.7868,-7.7996,-7.798,-7.796,-7.7914,-7.8014,-7.806,-7.8078,-7.7842,-7.7841,-7.784,-7.7839,0,0,-7.7148,-7.7263,-7.7287,-7.7333,-7.7422,-7.7489,-7.7582,-7.7672,-7.772,-7.7789,-7.7867,-7.7984,-7.7967,-7.8018,-7.8033,-7.8095,-7.8203,-7.8068,-7.807,-7.8091,-7.8348,-7.8363,-7.8384,-7.8199,-7.8203,-7.8206,-7.8342,0,-7.7273,-7.7439,-7.7468,-7.7613,-7.7695,-7.7699,-7.778,-7.7843,-7.7878,-7.7951,-7.7989,-7.8072,-7.8043,-7.8074,-7.8135,-7.8176,-7.8254,-7.8167,-7.8272,-7.8275,-7.8254,-7.8408,-7.8423,-7.8548,-7.836,-7.8363,-7.8366,0,-7.7441,-7.7517,-7.7671,-7.7751,-7.7787,-7.7859,-7.7945,-7.8016,-7.8087,-7.8108,-7.8167,-7.8176,-7.8272,-7.8222,-7.8355,-7.8295,-7.834,-7.8367,-7.8373,-7.8383,-7.8326,-7.8422,-7.8589,-7.8608,-7.8394,-7.8392,-7.839,0,-7.7522,-7.7663,-7.7774,-7.7812,-7.7908,-7.7959,-7.8001,-7.807,-7.8123,-7.8198,-7.8233,-7.8317,-7.8363,-7.8428,-7.8459,-7.842,-7.8591,-7.8543,-7.861,-7.861,-7.8645,-7.8643,-7.8822,-7.8674,-7.8674,-7.8674,-7.8673,0,-7.7658,-7.7752,-7.7811,-7.7879,-7.7985,-7.8018,-7.8121,-7.8162,-7.8224,-7.8299,-7.8308,-7.8378,-7.8416,-7.8492,-7.8518,-7.8625,-7.8645,-7.8664,-7.867,-7.8664,-7.8661,-7.8693,-7.8685,-7.8679,-7.8678,-7.8677,-7.8676,0,-7.7766,-7.7809,-7.7931,-7.8013,-7.8036,-7.811,-7.818,-7.8246,-7.8282,-7.8378,-7.8402,-7.8457,-7.8548,-7.8586,-7.8696,-7.8714,-7.8836,-7.8835,-7.8813,-7.8815,-7.888,-7.8874,-7.9086,-7.9116,-7.8948,-7.895,-7.8951,0,-7.785,-7.7923,-7.8014,-7.8067,-7.8111,-7.8195,-7.825,-7.8285,-7.8342,-7.8431,-7.8487,-7.8578,-7.8653,-7.8797,-7.8846,-7.8931,-7.8933,-7.9001,-7.8945,-7.8937,-7.8934,-7.893,-7.8938,-7.9011,-7.9013,-7.9014,-7.9015,0,-7.7996,-7.8014,-7.8094,-7.8183,-7.8249,-7.832,-7.8389,-7.8431,-7.8477,-7.8541,-7.8635,-7.8693,-7.8808,-7.8898,-7.8987,-7.9029,-7.903,-7.9033,-7.9053,-7.9047,-7.9032,-7.9042,-7.8841,-7.9027,-7.9026,-7.9025,-7.9025,-7.9024,-7.8095,-7.8161,-7.8236,-7.8325,-7.8382,-7.8447,-7.8514,-7.8559,-7.8639,-7.8737,-7.8752,-7.8853,-7.8924,-7.9044,-7.909,-7.9169,-7.9151,-7.918,-7.9188,-7.9194,-7.9199,-7.902,-7.9185,-7.9184,-7.9184,-7.9184,-7.9184,0,-7.8241,-7.8291,-7.8373,-7.8471,-7.8542,-7.8539,-7.8616,-7.8675,-7.8764,-7.8832,-7.8906,-7.9015,-7.9104,-7.9161,-7.9251,-7.9303,-7.9306,-7.9325,-7.9322,-7.9332,-7.9209,-7.9183,-7.9322,-7.9322,-7.9322,-7.9322,-7.9321,-7.9321,-7.8326,-7.8438,-7.8466,-7.8606,-7.8655,-7.8755,-7.88,-7.886,-7.8914,-7.9036,-7.9111,-7.9149,-7.9213,-7.9307,-7.9389,-7.9403,-7.9436,-7.9457,-7.947,-7.9354,-7.934,-7.9326,-7.9302,-7.9463,-7.9464,-7.9586,-7.9587,-7.9588]}]]